Lihue, HI

5:04 AM HST on February 21, 2017 (GMT -1000)
Lihue

Weather History for PHLI - September, 2015

Change the Weather History Date:

Wednesday, September 9, 2015

  Actual Average Record
Temperature  
Mean Temperature 81 °F 80 °F  
Max Temperature 87 °F 85 °F 89 °F (1959)
Min Temperature 75 °F 74 °F 66 °F (1981)
Degree Days  
Heating Degree Days 0 0  
Month to date heating degree days 0 0  
Since 1 July heating degree days 0 0  
Cooling Degree Days 16 15  
Month to date cooling degree days 16 135  
Year to date cooling degree days 1975 2661  
Growing Degree Days 30 (Base 50)    
Moisture  
Dew Point 73 °F    
Average Humidity 77    
Maximum Humidity 90    
Minimum Humidity 63    
Precipitation  
Precipitation 0.00 in 0.06 in 1.62 in (1968)
Month to date precipitation 0.00 0.53  
Year to date precipitation 7.71 21.98  
Snow  
Snow 0.00 in - - ()
Month to date snowfall 0.0  
Since 1 July snowfall 0.0  
Since 1 September snowfall 0.0  
Snow Depth -    
Sea Level Pressure  
Sea Level Pressure 29.84 in    
Wind  
Wind Speed 6 mph (West)    
Max Wind Speed 14 mph    
Max Gust Speed 18 mph    
Visibility 10 miles    
Events      
T = Trace of Precipitation, MM = Missing Value Source: NWS Daily Summary

Daily Weather History Graph

Daily Weather History Graph

Search for Another Location

Airport or City:

Trip Planner

Search our weather history database for the weather conditions in past years. The results will help you decide how hot, cold, wet, or windy it might be!

Date:

Astronomy

Sep. 09, 2015 Rise Set
Actual Time 6:22 AM HST 6:46 PM HST
Civil Twilight 6:00 AM HST 7:08 PM HST
Nautical Twilight 5:33 AM HST 7:35 PM HST
Astronomical Twilight 5:07 AM HST 8:01 PM HST
Moon 3:27 AM HST (9/9) 4:37 PM HST (9/9)
Length of Visible Light 13h 08m
Length of Day
12h 23m
Waning Crescent, 10% of the Moon is Illuminated
Sep 9
Waning Crescent
Sep 12
New
Sep 20
First Quarter
Sep 27
Full
Oct 4
Last Quarter

Hourly Weather History & Observations

Time (HST) Temp. Heat Index Dew Point Humidity Pressure Visibility Wind Dir Wind Speed Gust Speed Precip Events Conditions
12:53 AM 77.0 °F - 73.0 °F 88% 29.90 in 10.0 mi West 5.8 mph - N/A   Clear
1:53 AM 75.9 °F - 72.0 °F 87% 29.88 in 10.0 mi WSW 3.5 mph - N/A   Partly Cloudy
2:53 AM 77.0 °F - 72.0 °F 84% 29.86 in 10.0 mi WNW 3.5 mph - N/A   Overcast
3:53 AM 75.9 °F - 72.0 °F 87% 29.85 in 10.0 mi WNW 4.6 mph - N/A   Overcast
4:53 AM 75.0 °F - 72.0 °F 90% 29.84 in 10.0 mi West 6.9 mph - N/A   Clear
5:53 AM 75.9 °F - 71.1 °F 85% 29.85 in 10.0 mi West 5.8 mph - N/A   Mostly Cloudy
6:53 AM 75.9 °F - 72.0 °F 87% 29.86 in 10.0 mi West 4.6 mph - N/A   Scattered Clouds
7:53 AM 80.1 °F 84.2 °F 73.0 °F 79% 29.87 in 10.0 mi West 6.9 mph - N/A   Scattered Clouds
8:53 AM 84.0 °F 90.2 °F 73.0 °F 69% 29.88 in 10.0 mi NNE 4.6 mph - N/A   Partly Cloudy
9:10 AM 84.2 °F 90.9 °F 73.4 °F 70% 29.89 in 10.0 mi NNE 6.9 mph - N/A   Mostly Cloudy
9:38 AM 84.2 °F 90.9 °F 73.4 °F 70% 29.89 in 10.0 mi NNE 10.4 mph - N/A   Overcast
9:53 AM 82.9 °F 88.8 °F 73.0 °F 72% 29.88 in 10.0 mi Calm Calm - N/A   Overcast
10:05 AM 84.2 °F 89.6 °F 71.6 °F 66% 29.89 in 10.0 mi West 3.5 mph - N/A   Overcast
10:50 AM 84.2 °F 90.9 °F 73.4 °F 70% 29.88 in 10.0 mi Variable 4.6 mph - N/A   Mostly Cloudy
10:53 AM 84.0 °F 91.2 °F 73.9 °F 72% 29.87 in 10.0 mi East 5.8 mph - N/A   Mostly Cloudy
11:18 AM 82.4 °F 88.2 °F 73.4 °F 74% 29.88 in 10.0 mi SE 9.2 mph - N/A   Overcast
11:53 AM 84.9 °F 91.4 °F 73.0 °F 67% 29.86 in 10.0 mi SE 10.4 mph - N/A   Mostly Cloudy
12:53 PM 84.9 °F 93.3 °F 75.0 °F 72% 29.83 in 10.0 mi South 10.4 mph - N/A   Partly Cloudy
1:53 PM 86.0 °F 95.1 °F 75.0 °F 70% 29.80 in 10.0 mi South 11.5 mph - N/A   Clear
2:53 PM 84.0 °F 91.2 °F 73.9 °F 72% 29.79 in 10.0 mi SE 8.1 mph - N/A   Mostly Cloudy
3:53 PM 84.9 °F 93.3 °F 75.0 °F 72% 29.77 in 10.0 mi East 6.9 mph - N/A   Mostly Cloudy
4:53 PM 84.0 °F 91.9 °F 75.0 °F 74% 29.78 in 10.0 mi East 8.1 mph - N/A   Partly Cloudy
5:53 PM 82.9 °F 90.2 °F 75.0 °F 77% 29.78 in 10.0 mi East 8.1 mph - N/A   Overcast
6:53 PM 82.0 °F 88.6 °F 75.0 °F 79% 29.79 in 10.0 mi East 5.8 mph - N/A   Overcast
7:53 PM 81.0 °F 86.2 °F 73.9 °F 79% 29.80 in 10.0 mi WNW 6.9 mph - N/A   Overcast
8:53 PM 80.1 °F 84.5 °F 73.9 °F 81% 29.83 in 10.0 mi WNW 5.8 mph - N/A   Mostly Cloudy
9:53 PM 79.0 °F - 75.0 °F 88% 29.84 in 10.0 mi WNW 5.8 mph - N/A   Scattered Clouds
10:53 PM 78.1 °F - 73.9 °F 87% 29.83 in 10.0 mi West 5.8 mph - N/A   Scattered Clouds
11:53 PM 78.1 °F - 73.9 °F 87% 29.82 in 10.0 mi West 5.8 mph - N/A   Clear